Location: Martley
(52.2333°N, 2.3667°W)
Time: 05:05:55
(UTC+00:00)

Cosmos 2227 Rocket - Pass Details

Date: 11 December 2019
Orbit: 840 x 844 km, 71.0° (Epoch: 22 January)

Event Time Altitude Azimuth Distance (km) Brightness Sun altitude
Exits shadow 06:55:08 11° 316° (NW) 2,396 4.0 -10.4°
Maximum altitude 06:57:30 14° 342° (NNW) 2,211 4.0 -10.1°
Drops below altitude 10° 07:00:21 10° 12° (NNE) 2,476 4.5 -9.7°
Sets 07:04:12 0° 38° (NE) 3,412 5.5 -9.1°
